Weather History for Branson, MO

Change the Weather History Date:

Saturday, March 2, 2013

  Actual Average (KHRO) Record (KHRO)
Temperature  
Mean Temperature 28 °F 44 °F  
Max Temperature 32 °F 55 °F 84 °F (1901)
Min Temperature 23 °F 34 °F 4 °F (1980)
Degree Days  
Heating Degree Days 38 21  
Month to date heating degree days 42  
Since 1 July heating degree days 3214  
Cooling Degree Days 0 0  
Month to date cooling degree days 0  
Year to date cooling degree days 0  
Moisture  
Dew Point 19 °F    
Average Humidity 74    
Maximum Humidity 86    
Minimum Humidity 51    
Precipitation  
Precipitation 0.00 in 0.10 in 1.07 in (1988)
Month to date precipitation 0.20  
Year to date precipitation 5.40  
Snow  
Snow 0.00 in 0.10 in 2.00 in (1971)
Month to date snowfall 0.2  
Since 1 July snowfall 9.4  
Snow Depth -    
Sea Level Pressure  
Sea Level Pressure 30.23 in    
Wind  
Wind Speed 8 mph (NW)    
Max Wind Speed 17 mph    
Max Gust Speed 24 mph    
Visibility 9 miles    
Events Rain , Snow    
T = Trace of Precipitation, MM = Missing Value Source: NWS Daily Summary

Daily Weather History Graph

Daily Weather History Graph

Search for Another Location

Airport:

Trip Planner

Search our weather history database for the weather conditions in past years. The results will help you decide how hot, cold, wet, or windy it might be!

Date:

Astronomy

Mar. 02, 2013 Rise Set
Actual Time 6:41 AM CST 6:08 PM CST
Civil Twilight 6:15 AM CST 6:34 PM CST
Nautical Twilight 5:45 AM CST 7:04 PM CST
Astronomical Twilight 5:16 AM CST 7:34 PM CST
Moon 11:38 PM CST (3/2) 9:19 AM CST (3/2)
Length of Visible Light 12h 18m
Length of Day
11h 26m
Waning Gibbous, 74% of the Moon is Illuminated
Mar 2
Waning Gibbous
Mar 4
Last Quarter
Mar 11
New
Mar 19
First Quarter
Mar 27
Full

Hourly Weather History & Observations

Time (CST) Temp. Windchill Dew Point Humidity Pressure Visibility Wind Dir Wind Speed Gust Speed Precip Events Conditions
12:15 AM 26.6 °F 18.2 °F 23.0 °F 86% 30.22 in 6.0 mi NW 8.1 mph - N/A Snow Light Snow
12:35 AM 26.6 °F 19.1 °F 23.0 °F 86% 30.22 in 6.0 mi NW 6.9 mph - N/A Rain Light Freezing Rain
12:55 AM 26.6 °F 16.8 °F 23.0 °F 86% 30.22 in 7.0 mi NW 10.4 mph - N/A   Mostly Cloudy
1:15 AM 26.6 °F 19.1 °F 23.0 °F 86% 30.22 in 6.0 mi NW 6.9 mph - N/A Rain Light Freezing Rain
1:35 AM 26.6 °F 19.1 °F 23.0 °F 86% 30.23 in 6.0 mi NW 6.9 mph - N/A Rain Light Freezing Rain
1:55 AM 26.6 °F 18.2 °F 23.0 °F 86% 30.23 in 5.0 mi NW 8.1 mph - N/A Snow Light Snow
2:15 AM 26.6 °F 16.8 °F 23.0 °F 86% 30.22 in 6.0 mi NW 10.4 mph - N/A   Haze
2:55 AM 26.6 °F 18.2 °F 23.0 °F 86% 30.21 in 7.0 mi NW 8.1 mph - N/A   Overcast
3:35 AM 26.6 °F 17.5 °F 23.0 °F 86% 30.21 in 8.0 mi NW 9.2 mph - N/A   Overcast
3:55 AM 26.6 °F 16.2 °F 23.0 °F 86% 30.20 in 9.0 mi NW 11.5 mph - N/A   Mostly Cloudy
4:15 AM 26.6 °F 17.5 °F 23.0 °F 86% 30.21 in 9.0 mi NW 9.2 mph 16.1 mph N/A   Overcast
4:35 AM 26.6 °F 16.8 °F 23.0 °F 86% 30.21 in 9.0 mi NW 10.4 mph - N/A   Overcast
4:55 AM 26.6 °F 18.2 °F 21.2 °F 80% 30.21 in 10.0 mi NW 8.1 mph - N/A   Overcast
5:15 AM 26.6 °F 18.2 °F 21.2 °F 80% 30.23 in 10.0 mi NW 8.1 mph - N/A   Overcast
6:48 AM 24.8 °F 14.0 °F 15.8 °F 69% 30.26 in 10.0 mi NW 11.5 mph 18.4 mph N/A   Overcast
7:50 AM 24.8 °F 12.4 °F 17.6 °F 74% 30.27 in 10.0 mi NNW 15.0 mph 20.7 mph N/A   Overcast
8:47 AM 24.8 °F 11.5 °F 17.6 °F 74% 30.29 in 10.0 mi NNW 17.3 mph 23.0 mph N/A   Overcast
9:51 AM 26.6 °F 14.3 °F 15.8 °F 64% 30.29 in 10.0 mi NNW 16.1 mph 24.2 mph N/A   Overcast
10:50 AM 26.6 °F 15.2 °F 17.6 °F 69% 30.29 in 10.0 mi NNW 13.8 mph 20.7 mph N/A   Overcast
11:48 AM 26.6 °F 14.7 °F 15.8 °F 64% 30.29 in 10.0 mi NW 15.0 mph 19.6 mph N/A   Overcast
1:48 PM 32.0 °F 23.0 °F 15.8 °F 51% 30.25 in 10.0 mi NW 11.5 mph 19.6 mph N/A   Mostly Cloudy
2:55 PM 32.0 °F 24.2 °F 17.6 °F 55% 30.24 in 10.0 mi NW 9.2 mph - N/A   Scattered Clouds
3:50 PM 32.0 °F 25.6 °F 15.8 °F 51% 30.23 in 10.0 mi WNW 6.9 mph - N/A   Partly Cloudy
4:45 PM 32.0 °F 25.6 °F 15.8 °F 51% 30.24 in 10.0 mi West 6.9 mph - N/A   Clear
5:50 PM 32.0 °F 27.5 °F 15.8 °F 51% 30.24 in 10.0 mi WNW 4.6 mph - N/A   Clear
6:45 PM 28.4 °F 22.2 °F 15.8 °F 59% 30.24 in 10.0 mi NW 5.8 mph - N/A   Clear
7:55 PM 28.4 °F 21.2 °F 17.6 °F 64% 30.24 in 10.0 mi NW 6.9 mph - N/A   Clear
8:15 PM 26.6 °F 21.2 °F 17.6 °F 69% 30.23 in 10.0 mi NW 4.6 mph - N/A   Clear
8:35 PM 26.6 °F - 17.6 °F 69% 30.23 in 10.0 mi Calm Calm - N/A   Clear
8:45 PM 24.8 °F - 17.6 °F 74% 30.23 in 10.0 mi Calm Calm - N/A   Clear
8:55 PM 24.8 °F - 17.6 °F 74% 30.23 in 10.0 mi Calm Calm - N/A   Clear
9:15 PM 24.8 °F - 17.6 °F 74% 30.23 in 10.0 mi Calm Calm - N/A   Clear
9:35 PM 24.8 °F - 17.6 °F 74% 30.23 in 10.0 mi Calm Calm - N/A   Clear
9:55 PM 24.8 °F - 17.6 °F 74% 30.23 in 10.0 mi Calm Calm - N/A   Clear
10:15 PM 24.8 °F - 17.6 °F 74% 30.23 in 10.0 mi Calm Calm - N/A   Clear
10:35 PM 24.8 °F - 17.6 °F 74% 30.23 in 10.0 mi Calm Calm - N/A   Clear
10:55 PM 24.8 °F - 17.6 °F 74% 30.22 in 10.0 mi Calm Calm - N/A   Clear
11:15 PM 24.8 °F - 17.6 °F 74% 30.21 in 10.0 mi Calm Calm - N/A   Clear
11:35 PM 23.0 °F 18.4 °F 17.6 °F 80% 30.21 in 9.0 mi SE 3.5 mph - N/A   Clear
11:55 PM 23.0 °F - 17.6 °F 80% 30.20 in 10.0 mi Calm Calm - N/A   Clear